Satellite: NOAA-10
Catalog number: 16969
Epoch time:      12054.28219727
Element set:     828
Inclination:      098.5942 deg
RA of node:       085.3150 deg
Eccentricity:    0.0011930
Arg of perigee:   207.5753 deg
Mean anomaly:     152.4798 deg
Mean motion:   14.27528554 rev/day
Decay rate:       -2.7e-07 rev/day^2
Epoch rev:           32347
Checksum:              321

Satellite: NOAA-11
Catalog number: 19531
Epoch time:      12054.30704080
Element set:     826
Inclination:      098.7361 deg
RA of node:       141.8684 deg
Eccentricity:    0.0010939
Arg of perigee:   188.1515 deg
Mean anomaly:     171.9490 deg
Mean motion:   14.14952705 rev/day
Decay rate:       -8.1e-07 rev/day^2
Epoch rev:           20826
Checksum:              296

Satellite: NOAA-12
Catalog number: 21263
Epoch time:      12054.56576998
Element set:     315
Inclination:      098.7379 deg
RA of node:       076.7229 deg
Eccentricity:    0.0013682
Arg of perigee:   170.4767 deg
Mean anomaly:     189.6675 deg
Mean motion:   14.25478987 rev/day
Decay rate:        8.1e-07 rev/day^2
Epoch rev:            8022
Checksum:              350

Satellite: MET-3/5
Catalog number: 21655
Epoch time:      12054.81701394
Element set:     343
Inclination:      082.5529 deg
RA of node:       232.9741 deg
Eccentricity:    0.0012287
Arg of perigee:   246.5923 deg
Mean anomaly:     113.3871 deg
Mean motion:   13.17037448 rev/day
Decay rate:        5.1e-07 rev/day^2
Epoch rev:           98684
Checksum:              306

Satellite: MET-2/21
Catalog number: 22782
Epoch time:      12053.74682537
Element set:    0346
Inclination:      082.5495 deg
RA of node:       124.1128 deg
Eccentricity:    0.0024041
Arg of perigee:   114.6046 deg
Mean anomaly:     245.7638 deg
Mean motion:   13.83676646 rev/day
Decay rate:        6.0e-08 rev/day^2
Epoch rev:           93320
Checksum:              297

Satellite: OKEAN-4
Catalog number: 23317
Epoch time:      12053.91024837
Element set:    0869
Inclination:      082.5428 deg
RA of node:       138.9581 deg
Eccentricity:    0.0022088
Arg of perigee:   016.9112 deg
Mean anomaly:     343.2837 deg
Mean motion:   14.83593662 rev/day
Decay rate:       6.79e-06 rev/day^2
Epoch rev:           93771
Checksum:              328

Satellite: NOAA-14
Catalog number: 23455
Epoch time:      12054.54709099
Element set:     797
Inclination:      098.8336 deg
RA of node:       139.4717 deg
Eccentricity:    0.0008737
Arg of perigee:   289.4135 deg
Mean anomaly:     070.6094 deg
Mean motion:   14.13878133 rev/day
Decay rate:        7.4e-07 rev/day^2
Epoch rev:           88459
Checksum:              349

Satellite: NOAA-15
Catalog number: 25338
Epoch time:      12054.39987089
Element set:     156
Inclination:      098.6816 deg
RA of node:       042.4452 deg
Eccentricity:    0.0011608
Arg of perigee:   083.4118 deg
Mean anomaly:     276.8382 deg
Mean motion:   14.25032478 rev/day
Decay rate:       1.21e-06 rev/day^2
Epoch rev:           71650
Checksum:              309

Satellite: RESURS
Catalog number: 25394
Epoch time:      12054.82233807
Element set:      21
Inclination:      098.3121 deg
RA of node:       049.1246 deg
Eccentricity:    0.0000871
Arg of perigee:   174.7608 deg
Mean anomaly:     185.3581 deg
Mean motion:   14.24274311 rev/day
Decay rate:        2.4e-07 rev/day^2
Epoch rev:           70812
Checksum:              264

Satellite: FENGYUN1
Catalog number: 25730
Epoch time:      12053.92587839
Element set:     543
Inclination:      098.8387 deg
RA of node:       014.9755 deg
Eccentricity:    0.0020447
Arg of perigee:   336.7306 deg
Mean anomaly:     023.2931 deg
Mean motion:   14.09255858 rev/day
Decay rate:      1.369e-05 rev/day^2
Epoch rev:           65837
Checksum:              334

Satellite: OKEAN-0
Catalog number: 25860
Epoch time:      12053.93844567
Element set:    0569
Inclination:      097.9202 deg
RA of node:       019.0446 deg
Eccentricity:    0.0000464
Arg of perigee:   073.2055 deg
Mean anomaly:     286.9199 deg
Mean motion:   14.74090685 rev/day
Decay rate:       4.07e-06 rev/day^2
Epoch rev:           67759
Checksum:              330

Satellite: NOAA-16
Catalog number: 26536
Epoch time:      12054.37287225
Element set:     640
Inclination:      099.1103 deg
RA of node:       094.6446 deg
Eccentricity:    0.0011053
Arg of perigee:   049.7856 deg
Mean anomaly:     310.4306 deg
Mean motion:   14.12708539 rev/day
Decay rate:       4.15e-06 rev/day^2
Epoch rev:           58882
Checksum:              300

Satellite: NOAA-17
Catalog number: 27453
Epoch time:      12054.31390027
Element set:     608
Inclination:      098.3494 deg
RA of node:       087.0902 deg
Eccentricity:    0.0012495
Arg of perigee:   130.7792 deg
Mean anomaly:     229.4467 deg
Mean motion:   14.24396298 rev/day
Decay rate:       1.86e-06 rev/day^2
Epoch rev:           50240
Checksum:              311

Satellite: NOAA-18
Catalog number: 28654
Epoch time:      12054.38344302
Element set:      85
Inclination:      099.0327 deg
RA of node:       011.6014 deg
Eccentricity:    0.0015027
Arg of perigee:   116.2247 deg
Mean anomaly:     244.0486 deg
Mean motion:   14.11606379 rev/day
Decay rate:       -4.9e-07 rev/day^2
Epoch rev:           34836
Checksum:              282

